BEL520 LPPT-EBBR

Flight info

Callsign BEL520
Flight time 2h 20m
Altitude 36000
Route IXIDA DCT TOSDI N745 ZMR N873 DELOG/N0450F380 DCT YURZI DCT OLEBA UN873 BAZOS DCT BELDI DCT VEKIN/N0413F260 Z173 ARVOL
Aircraft A320/M-SDE3FGHIRWY/LB1

Departure

Time 2026-05-07 17:40
Airport Lisbon Humberto Delgado Airport (LPPT)

Arrival

Time 2026-05-07 20:00
Airport Brussels Airport (EBBR)
Time Latitude Longitude Altitude Speed Heading
2026-05-07 17:06 38.76882 -9.13603 351 ft 0 kts 258°
2026-05-07 17:26 38.76883 -9.13595 347 ft 4 kts 256°
2026-05-07 17:27 38.76891 -9.13562 356 ft 4 kts 237°
2026-05-07 17:27 38.76909 -9.13542 356 ft 4 kts 179°
2026-05-07 17:27 38.76916 -9.13542 355 ft 0 kts 165°
2026-05-07 17:30 38.76910 -9.13538 355 ft 1 kts 150°
2026-05-07 17:30 38.76904 -9.13530 353 ft 3 kts 137°
2026-05-07 17:30 38.76881 -9.13503 352 ft 4 kts 138°
2026-05-07 17:31 38.76849 -9.13481 349 ft 6 kts 162°
2026-05-07 17:31 38.76805 -9.13466 351 ft 7 kts 167°
2026-05-07 17:31 38.76764 -9.13455 347 ft 5 kts 173°
2026-05-07 17:31 38.76729 -9.13459 347 ft 5 kts 168°
2026-05-07 17:32 38.76695 -9.13448 347 ft 5 kts 167°
2026-05-07 17:32 38.76657 -9.13474 349 ft 9 kts 246°
2026-05-07 17:32 38.76640 -9.13567 350 ft 12 kts 259°
2026-05-07 17:32 38.76623 -9.13675 347 ft 13 kts 258°
2026-05-07 17:33 38.76603 -9.13798 347 ft 15 kts 258°
2026-05-07 17:33 38.76581 -9.13931 350 ft 9 kts 258°
2026-05-07 17:33 38.76556 -9.14013 353 ft 11 kts 235°
2026-05-07 17:33 38.76506 -9.14095 352 ft 12 kts 233°
2026-05-07 17:34 38.76505 -9.14206 350 ft 14 kts 289°
2026-05-07 17:34 38.76512 -9.14228 346 ft 0 kts 293°
2026-05-07 17:35 38.76513 -9.14230 346 ft 2 kts 292°
2026-05-07 17:35 38.76528 -9.14276 345 ft 8 kts 292°
2026-05-07 17:36 38.76537 -9.14305 347 ft 0 kts 292°
2026-05-07 17:38 38.76541 -9.14318 343 ft 8 kts 292°
2026-05-07 17:38 38.76580 -9.14397 338 ft 8 kts 327°
2026-05-07 17:38 38.76619 -9.14398 337 ft 0 kts 19°
2026-05-07 17:39 38.76623 -9.14396 338 ft 4 kts 19°
2026-05-07 17:39 38.76865 -9.14271 348 ft 74 kts 23°
2026-05-07 17:39 38.77540 -9.13912 356 ft 133 kts 20°
2026-05-07 17:40 38.78448 -9.13451 680 ft 142 kts 19°
2026-05-07 17:40 38.79377 -9.12926 1136 ft 149 kts 19°
2026-05-07 17:40 38.80322 -9.12385 1696 ft 148 kts 15°
2026-05-07 17:40 38.81287 -9.11860 2125 ft 156 kts 19°
2026-05-07 17:41 38.82314 -9.11140 2359 ft 180 kts 26°
2026-05-07 17:41 38.83495 -9.10242 2516 ft 210 kts 26°
2026-05-07 17:41 38.84816 -9.09229 2885 ft 233 kts 28°
2026-05-07 17:41 38.86279 -9.08102 3299 ft 257 kts 28°
2026-05-07 17:42 38.87851 -9.06887 4016 ft 269 kts 29°
2026-05-07 17:42 38.89464 -9.05591 4850 ft 278 kts 36°
2026-05-07 17:42 38.90942 -9.03951 5712 ft 284 kts 44°
2026-05-07 17:42 38.92405 -9.02226 6637 ft 287 kts 45°
2026-05-07 17:43 38.93892 -9.00486 7508 ft 291 kts 44°
2026-05-07 17:43 38.95404 -8.98721 8370 ft 295 kts 44°
2026-05-07 17:43 38.96938 -8.96937 9221 ft 300 kts 44°
2026-05-07 17:43 38.98495 -8.95125 10020 ft 305 kts 44°
2026-05-07 17:44 39.00119 -8.93229 10346 ft 327 kts 44°
2026-05-07 17:44 39.01859 -8.91191 10689 ft 346 kts 44°
2026-05-07 17:44 39.03656 -8.89086 11337 ft 353 kts 44°
2026-05-07 17:44 39.05481 -8.86948 12074 ft 357 kts 44°
2026-05-07 17:45 39.07330 -8.84788 12819 ft 361 kts 44°
2026-05-07 17:45 39.09201 -8.82598 13564 ft 365 kts 44°
2026-05-07 17:45 39.11093 -8.80385 14230 ft 369 kts 44°
2026-05-07 17:45 39.13002 -8.78147 14864 ft 373 kts 44°
2026-05-07 17:46 39.14930 -8.75884 15497 ft 376 kts 44°
2026-05-07 17:46 39.16854 -8.73573 16117 ft 380 kts 47°
2026-05-07 17:46 39.18620 -8.71027 16737 ft 383 kts 50°
2026-05-07 17:46 39.20391 -8.68435 17346 ft 387 kts 50°
2026-05-07 17:47 39.22177 -8.65817 17947 ft 391 kts 50°
2026-05-07 17:47 39.23984 -8.63167 18492 ft 395 kts 49°
2026-05-07 17:47 39.25812 -8.60483 18989 ft 399 kts 49°
2026-05-07 17:47 39.27651 -8.57778 19487 ft 403 kts 49°
2026-05-07 17:48 39.29515 -8.55039 19987 ft 408 kts 49°
2026-05-07 17:48 39.31398 -8.52272 20487 ft 412 kts 49°
2026-05-07 17:48 39.33275 -8.49510 20964 ft 416 kts 49°
2026-05-07 17:48 39.35194 -8.46687 21450 ft 421 kts 48°
2026-05-07 17:49 39.37218 -8.43857 21935 ft 425 kts 46°
2026-05-07 17:49 39.39279 -8.41156 22407 ft 430 kts 44°
2026-05-07 17:49 39.41427 -8.38449 22888 ft 434 kts 43°
2026-05-07 17:49 39.43612 -8.35730 23361 ft 438 kts 43°
2026-05-07 17:50 39.45812 -8.32980 23760 ft 441 kts 43°
2026-05-07 17:50 39.48018 -8.30195 24158 ft 444 kts 44°
2026-05-07 17:50 39.50223 -8.27375 24570 ft 447 kts 44°
2026-05-07 17:50 39.52431 -8.24525 24965 ft 449 kts 44°
2026-05-07 17:51 39.54642 -8.21655 25350 ft 452 kts 44°
2026-05-07 17:51 39.56868 -8.18760 25720 ft 454 kts 44°
2026-05-07 17:51 39.59101 -8.15858 26092 ft 456 kts 43°
2026-05-07 17:51 39.61354 -8.12934 26451 ft 458 kts 43°
2026-05-07 17:52 39.63617 -8.09998 26822 ft 461 kts 43°
2026-05-07 17:52 39.65890 -8.07053 27176 ft 463 kts 43°
2026-05-07 17:52 39.68173 -8.04096 27523 ft 465 kts 43°
2026-05-07 17:52 39.70467 -8.01117 27876 ft 467 kts 43°
2026-05-07 17:53 39.72769 -7.98116 28215 ft 470 kts 43°
2026-05-07 17:53 39.74884 -7.95359 28527 ft 472 kts 43°
2026-05-07 17:53 39.77202 -7.92334 28840 ft 474 kts 43°
2026-05-07 17:53 39.79534 -7.89290 29151 ft 476 kts 42°
2026-05-07 17:54 39.81876 -7.86229 29403 ft 479 kts 42°
2026-05-07 17:54 39.84233 -7.83146 29694 ft 481 kts 42°
2026-05-07 17:54 39.86599 -7.80042 29984 ft 483 kts 42°
2026-05-07 17:54 39.88963 -7.76937 30212 ft 485 kts 42°
2026-05-07 17:55 39.91339 -7.73812 30432 ft 487 kts 42°
2026-05-07 17:55 39.93702 -7.70706 30635 ft 489 kts 42°
2026-05-07 17:55 39.96133 -7.67509 30857 ft 490 kts 42°
2026-05-07 17:55 39.98538 -7.64349 31081 ft 492 kts 42°
2026-05-07 17:56 40.00923 -7.61217 31283 ft 494 kts 41°
2026-05-07 17:56 40.03374 -7.57992 31477 ft 495 kts 41°
2026-05-07 17:56 40.05770 -7.54836 31696 ft 496 kts 41°
2026-05-07 17:56 40.08194 -7.51636 31989 ft 495 kts 41°
2026-05-07 17:57 40.10618 -7.48426 32271 ft 495 kts 41°
2026-05-07 17:57 40.12253 -7.46254 32455 ft 494 kts 41°
2026-05-07 17:57 40.15443 -7.42006 32829 ft 493 kts 41°
2026-05-07 17:57 40.17842 -7.38814 33114 ft 493 kts 41°
2026-05-07 17:58 40.20250 -7.35615 33384 ft 492 kts 41°
2026-05-07 17:58 40.22648 -7.32427 33653 ft 492 kts 41°
2026-05-07 17:58 40.25047 -7.29234 33905 ft 491 kts 41°
2026-05-07 17:58 40.27444 -7.26039 34135 ft 491 kts 41°
2026-05-07 17:59 40.29831 -7.22850 34351 ft 491 kts 41°
2026-05-07 17:59 40.32227 -7.19667 34580 ft 489 kts 36°
2026-05-07 17:59 40.34689 -7.16610 34796 ft 488 kts 39°
2026-05-07 17:59 40.37099 -7.13465 34996 ft 489 kts 41°
2026-05-07 18:00 40.39460 -7.10239 35218 ft 490 kts 42°
2026-05-07 18:00 40.41793 -7.06983 35432 ft 490 kts 42°
2026-05-07 18:00 40.44094 -7.03771 35646 ft 489 kts 41°
2026-05-07 18:00 40.46435 -7.00543 35823 ft 489 kts 41°
2026-05-07 18:01 40.51138 -6.94172 35866 ft 483 kts 40°
2026-05-07 18:01 40.55832 -6.87889 35868 ft 481 kts 40°
2026-05-07 18:02 40.62845 -6.78445 35871 ft 481 kts 41°
2026-05-07 18:03 40.67495 -6.72119 35877 ft 480 kts 41°
2026-05-07 18:03 40.72139 -6.65791 35881 ft 480 kts 40°
2026-05-07 18:04 40.76792 -6.59462 35890 ft 480 kts 41°
2026-05-07 18:04 40.80652 -6.54190 35895 ft 480 kts 41°
2026-05-07 18:05 40.85278 -6.47850 35895 ft 479 kts 41°
2026-05-07 18:05 40.89901 -6.41505 35898 ft 479 kts 40°
2026-05-07 18:06 40.94516 -6.35165 35899 ft 478 kts 40°
2026-05-07 18:06 40.99126 -6.28818 35899 ft 477 kts 40°
2026-05-07 18:07 41.03911 -6.22792 35900 ft 474 kts 36°
2026-05-07 18:07 41.08870 -6.17061 35900 ft 472 kts 35°
2026-05-07 18:08 41.13828 -6.11328 35898 ft 473 kts 36°
2026-05-07 18:08 41.18720 -6.05492 35894 ft 473 kts 36°
2026-05-07 18:09 41.23588 -5.99597 35901 ft 473 kts 36°
2026-05-07 18:09 41.28458 -5.93709 35890 ft 473 kts 34°
2026-05-07 18:10 41.33601 -5.88421 35875 ft 469 kts 35°
2026-05-07 18:10 41.38326 -5.82357 35870 ft 474 kts 39°
2026-05-07 18:11 41.42978 -5.76129 35874 ft 473 kts 38°
2026-05-07 18:11 41.47788 -5.70154 35880 ft 472 kts 36°
2026-05-07 18:12 41.52791 -5.64656 35887 ft 463 kts 25°
2026-05-07 18:12 41.58483 -5.60948 35895 ft 452 kts 15°
2026-05-07 18:13 41.64281 -5.57680 35900 ft 453 kts 15°
2026-05-07 18:13 41.70072 -5.54375 35910 ft 452 kts 16°
2026-05-07 18:14 41.75867 -5.51075 35916 ft 451 kts 15°
2026-05-07 18:14 41.81647 -5.47805 35919 ft 451 kts 15°
2026-05-07 18:15 41.87419 -5.44535 35917 ft 450 kts 16°
2026-05-07 18:15 41.93189 -5.41251 35920 ft 449 kts 16°
2026-05-07 18:16 41.98940 -5.37969 35918 ft 449 kts 16°
2026-05-07 18:16 42.04682 -5.34689 35919 ft 448 kts 16°
2026-05-07 18:17 42.10423 -5.31398 35910 ft 448 kts 16°
2026-05-07 18:17 42.16119 -5.28134 35912 ft 448 kts 17°
2026-05-07 18:18 42.21852 -5.24843 35909 ft 448 kts 17°
2026-05-07 18:18 42.27581 -5.21537 35907 ft 448 kts 17°
2026-05-07 18:19 42.33315 -5.18229 35909 ft 448 kts 17°
2026-05-07 18:19 42.39048 -5.14917 35911 ft 448 kts 17°
2026-05-07 18:20 42.44781 -5.11598 35906 ft 448 kts 17°
2026-05-07 18:20 42.50514 -5.08274 35909 ft 448 kts 17°
2026-05-07 18:21 42.56249 -5.04945 35910 ft 448 kts 18°
2026-05-07 18:21 42.61979 -5.01602 35918 ft 448 kts 18°
2026-05-07 18:22 42.67705 -4.98253 35916 ft 448 kts 18°
2026-05-07 18:22 42.73445 -4.94898 35918 ft 448 kts 18°
2026-05-07 18:23 42.79167 -4.91547 35918 ft 448 kts 18°
2026-05-07 18:23 42.84899 -4.88174 35919 ft 448 kts 18°
2026-05-07 18:24 42.90594 -4.84821 35923 ft 449 kts 19°
2026-05-07 18:24 42.96362 -4.81417 35929 ft 449 kts 19°
2026-05-07 18:25 43.02053 -4.78048 35927 ft 449 kts 19°
2026-05-07 18:25 43.07782 -4.74660 35931 ft 449 kts 19°
2026-05-07 18:26 43.13521 -4.71259 35931 ft 449 kts 19°
2026-05-07 18:26 43.19242 -4.67852 35926 ft 448 kts 19°
2026-05-07 18:27 43.24963 -4.64444 35920 ft 449 kts 19°
2026-05-07 18:27 43.30694 -4.61023 35913 ft 449 kts 19°
2026-05-07 18:28 43.36416 -4.57590 35916 ft 449 kts 19°
2026-05-07 18:28 43.42138 -4.54158 35913 ft 449 kts 19°
2026-05-07 18:29 43.47865 -4.50713 35911 ft 449 kts 19°
2026-05-07 18:29 43.53595 -4.47266 35916 ft 449 kts 20°
2026-05-07 18:30 43.59326 -4.43813 35900 ft 450 kts 20°
2026-05-07 18:30 43.65062 -4.40341 35898 ft 450 kts 20°
2026-05-07 18:31 43.70797 -4.36866 35900 ft 450 kts 20°
2026-05-07 18:31 43.76535 -4.33378 35900 ft 451 kts 20°
2026-05-07 18:32 43.82283 -4.29880 35899 ft 451 kts 20°
2026-05-07 18:32 43.88026 -4.26381 35901 ft 451 kts 20°
2026-05-07 18:33 43.93774 -4.22864 35903 ft 451 kts 20°
2026-05-07 18:33 43.99523 -4.19345 35904 ft 452 kts 20°
2026-05-07 18:34 44.05285 -4.15809 35906 ft 452 kts 20°
2026-05-07 18:34 44.11038 -4.12271 35906 ft 452 kts 20°
2026-05-07 18:35 44.16800 -4.08718 35912 ft 453 kts 20°
2026-05-07 18:35 44.22565 -4.05161 35913 ft 453 kts 21°
2026-05-07 18:36 44.28323 -4.01593 35915 ft 453 kts 21°
2026-05-07 18:36 44.34044 -3.97852 35913 ft 456 kts 27°
2026-05-07 18:37 44.39522 -3.93515 35914 ft 456 kts 27°
2026-05-07 18:37 44.45046 -3.89142 35917 ft 456 kts 27°
2026-05-07 18:38 44.50572 -3.84759 35918 ft 456 kts 27°
2026-05-07 18:38 44.56103 -3.80368 35916 ft 456 kts 27°
2026-05-07 18:39 44.61620 -3.75964 35926 ft 457 kts 27°
2026-05-07 18:39 44.67155 -3.71543 35928 ft 457 kts 27°
2026-05-07 18:40 44.72690 -3.67119 35931 ft 457 kts 27°
2026-05-07 18:40 44.78212 -3.62683 35931 ft 458 kts 27°
2026-05-07 18:41 44.83742 -3.58226 35934 ft 458 kts 27°
2026-05-07 18:41 44.89284 -3.53773 35934 ft 458 kts 27°
2026-05-07 18:42 44.94820 -3.49308 35939 ft 459 kts 27°
2026-05-07 18:42 45.00349 -3.44819 35939 ft 459 kts 27°
2026-05-07 18:43 45.05885 -3.40313 35939 ft 459 kts 27°
2026-05-07 18:43 45.11427 -3.35807 35943 ft 459 kts 28°
2026-05-07 18:44 45.16968 -3.31293 35946 ft 460 kts 28°
2026-05-07 18:44 45.22510 -3.26771 35952 ft 460 kts 28°
2026-05-07 18:45 45.28052 -3.22230 35952 ft 460 kts 28°
2026-05-07 18:45 45.33602 -3.17678 35954 ft 460 kts 28°
2026-05-07 18:46 45.39153 -3.13124 35956 ft 460 kts 28°
2026-05-07 18:46 45.43761 -3.09329 35959 ft 461 kts 28°
2026-05-07 18:47 45.49313 -3.04739 35960 ft 461 kts 28°
2026-05-07 18:47 45.55761 -2.99398 35963 ft 461 kts 28°
2026-05-07 18:48 45.60406 -2.95535 35959 ft 461 kts 28°
2026-05-07 18:48 45.65953 -2.90914 35960 ft 461 kts 28°
2026-05-07 18:49 45.71506 -2.86297 35954 ft 461 kts 28°
2026-05-07 18:49 45.77015 -2.81696 35952 ft 461 kts 28°
2026-05-07 18:50 45.82566 -2.77044 35952 ft 462 kts 28°
2026-05-07 18:50 45.88112 -2.72381 35951 ft 462 kts 29°
2026-05-07 18:51 45.93663 -2.67700 35953 ft 463 kts 29°
2026-05-07 18:51 45.99225 -2.63022 35954 ft 464 kts 29°
2026-05-07 18:52 46.04789 -2.58324 35962 ft 464 kts 29°
2026-05-07 18:52 46.10364 -2.53597 35965 ft 465 kts 29°
2026-05-07 18:53 46.15937 -2.48859 35969 ft 465 kts 29°
2026-05-07 18:53 46.21765 -2.44883 35969 ft 464 kts 21°
2026-05-07 18:54 46.27684 -2.41163 35968 ft 464 kts 22°
2026-05-07 18:54 46.33606 -2.37430 35965 ft 464 kts 22°
2026-05-07 18:55 46.39523 -2.33696 35970 ft 465 kts 22°
2026-05-07 18:55 46.45455 -2.29943 35970 ft 465 kts 22°
2026-05-07 18:56 46.51381 -2.26191 35966 ft 465 kts 22°
2026-05-07 18:56 46.57309 -2.22420 35966 ft 465 kts 22°
2026-05-07 18:57 46.63234 -2.18638 35976 ft 465 kts 22°
2026-05-07 18:57 46.69173 -2.14854 35977 ft 466 kts 22°
2026-05-07 18:58 46.75104 -2.11059 35976 ft 466 kts 22°
2026-05-07 18:58 46.80994 -2.07267 35975 ft 466 kts 22°
2026-05-07 18:59 46.86926 -2.03454 35972 ft 466 kts 22°
2026-05-07 18:59 46.92853 -1.99627 35972 ft 466 kts 22°
2026-05-07 19:00 46.98787 -1.95799 35973 ft 466 kts 22°
2026-05-07 19:00 47.04730 -1.91960 35970 ft 466 kts 22°
2026-05-07 19:01 47.10660 -1.88105 35973 ft 466 kts 22°
2026-05-07 19:01 47.16470 -1.83868 35970 ft 467 kts 33°
2026-05-07 19:02 47.21698 -1.78189 35958 ft 468 kts 36°
2026-05-07 19:02 47.26906 -1.72452 35960 ft 468 kts 36°
2026-05-07 19:03 47.32076 -1.66735 35966 ft 468 kts 36°
2026-05-07 19:03 47.36712 -1.60029 35965 ft 468 kts 52°
2026-05-07 19:04 47.40712 -1.52444 35964 ft 468 kts 52°
2026-05-07 19:04 47.44731 -1.44867 35966 ft 469 kts 52°
2026-05-07 19:05 47.48752 -1.37279 35969 ft 469 kts 52°
2026-05-07 19:05 47.52765 -1.29668 35971 ft 469 kts 52°
2026-05-07 19:06 47.56768 -1.22032 35974 ft 469 kts 52°
2026-05-07 19:06 47.62760 -1.10559 35977 ft 470 kts 52°
2026-05-07 19:07 47.66755 -1.02897 35980 ft 470 kts 52°
2026-05-07 19:07 47.70752 -0.95211 35983 ft 470 kts 52°
2026-05-07 19:08 47.74738 -0.87518 35984 ft 470 kts 52°
2026-05-07 19:08 47.78718 -0.79809 35992 ft 470 kts 52°
2026-05-07 19:09 47.82697 -0.72092 35993 ft 470 kts 52°
2026-05-07 19:09 47.86669 -0.64356 35997 ft 470 kts 53°
2026-05-07 19:10 47.90611 -0.56652 36000 ft 470 kts 53°
2026-05-07 19:10 47.94578 -0.48885 36006 ft 470 kts 53°
2026-05-07 19:11 47.98535 -0.41114 36005 ft 470 kts 53°
2026-05-07 19:11 48.02490 -0.33339 36006 ft 470 kts 53°
2026-05-07 19:12 48.06432 -0.25558 36001 ft 469 kts 53°
2026-05-07 19:12 48.10396 -0.17803 36004 ft 469 kts 52°
2026-05-07 19:13 48.14421 -0.10098 35999 ft 470 kts 52°
2026-05-07 19:13 48.18445 -0.02379 36001 ft 470 kts 52°
2026-05-07 19:14 48.22422 0.05324 36001 ft 469 kts 52°
2026-05-07 19:14 48.26405 0.13086 36006 ft 469 kts 52°
2026-05-07 19:15 48.30385 0.20853 36009 ft 469 kts 52°
2026-05-07 19:15 48.34354 0.28630 36037 ft 467 kts 52°
2026-05-07 19:16 48.38299 0.36360 36041 ft 465 kts 52°
2026-05-07 19:16 48.42236 0.44063 36039 ft 464 kts 52°
2026-05-07 19:17 48.46180 0.51727 36039 ft 463 kts 52°
2026-05-07 19:17 48.50114 0.59397 36036 ft 462 kts 52°
2026-05-07 19:18 48.54603 0.66247 36033 ft 459 kts 36°
2026-05-07 19:18 48.59717 0.72020 36029 ft 459 kts 36°
2026-05-07 19:19 48.64815 0.77831 36027 ft 459 kts 36°
2026-05-07 19:19 48.69901 0.83649 36024 ft 458 kts 36°
2026-05-07 19:20 48.74975 0.89479 36029 ft 456 kts 36°
2026-05-07 19:20 48.77474 0.92356 35894 ft 446 kts 36°
2026-05-07 19:20 48.79929 0.95181 35590 ft 439 kts 36°
2026-05-07 19:21 48.82352 0.97968 35297 ft 436 kts 36°
2026-05-07 19:21 48.84761 1.00737 35003 ft 434 kts 36°
2026-05-07 19:21 48.87134 1.03473 34718 ft 433 kts 36°
2026-05-07 19:21 48.89534 1.06244 34431 ft 433 kts 36°
2026-05-07 19:22 48.91959 1.09048 34147 ft 432 kts 36°
2026-05-07 19:22 48.94317 1.11781 33988 ft 431 kts 36°
2026-05-07 19:22 48.99122 1.17359 34032 ft 432 kts 36°
2026-05-07 19:23 49.03805 1.22984 34032 ft 432 kts 42°
2026-05-07 19:23 49.08252 1.29199 34127 ft 432 kts 41°
2026-05-07 19:24 49.10427 1.32288 33916 ft 432 kts 43°
2026-05-07 19:24 49.12596 1.35466 33582 ft 432 kts 43°
2026-05-07 19:24 49.14752 1.38666 33254 ft 433 kts 43°
2026-05-07 19:24 49.16942 1.41909 32925 ft 433 kts 43°
2026-05-07 19:25 49.19116 1.45104 32603 ft 433 kts 43°
2026-05-07 19:25 49.21270 1.48248 32293 ft 434 kts 43°
2026-05-07 19:25 49.23460 1.51434 32035 ft 434 kts 43°
2026-05-07 19:25 49.25645 1.54605 32048 ft 434 kts 43°
2026-05-07 19:26 49.30039 1.60978 31882 ft 435 kts 43°
2026-05-07 19:26 49.32230 1.64168 31479 ft 435 kts 43°
2026-05-07 19:26 49.34421 1.67366 31100 ft 435 kts 43°
2026-05-07 19:27 49.36606 1.70560 30724 ft 433 kts 43°
2026-05-07 19:27 49.38780 1.73741 30355 ft 430 kts 43°
2026-05-07 19:27 49.40941 1.76908 29965 ft 431 kts 43°
2026-05-07 19:27 49.43121 1.80109 29536 ft 435 kts 43°
2026-05-07 19:28 49.45314 1.83337 29116 ft 436 kts 43°
2026-05-07 19:28 49.47504 1.86568 28688 ft 437 kts 43°
2026-05-07 19:28 49.49700 1.89808 28276 ft 438 kts 43°
2026-05-07 19:28 49.51901 1.93059 28022 ft 438 kts 43°
2026-05-07 19:29 49.56302 1.99578 28058 ft 439 kts 43°
2026-05-07 19:29 49.60705 2.06104 28057 ft 439 kts 43°
2026-05-07 19:30 49.65101 2.12644 28062 ft 439 kts 43°
2026-05-07 19:30 49.69490 2.19197 28062 ft 439 kts 43°
2026-05-07 19:31 49.73138 2.24652 28062 ft 439 kts 43°
2026-05-07 19:31 49.78244 2.32284 28065 ft 439 kts 43°
2026-05-07 19:32 49.82629 2.38866 28063 ft 439 kts 43°
2026-05-07 19:32 49.86271 2.44358 28065 ft 439 kts 43°
2026-05-07 19:33 49.88455 2.47663 27859 ft 438 kts 43°
2026-05-07 19:33 49.90621 2.50947 27591 ft 433 kts 43°
2026-05-07 19:33 49.92769 2.54196 27362 ft 430 kts 43°
2026-05-07 19:33 49.94941 2.57406 27194 ft 431 kts 43°
2026-05-07 19:34 49.97083 2.60638 26926 ft 428 kts 43°
2026-05-07 19:34 49.99200 2.63880 26680 ft 427 kts 44°
2026-05-07 19:34 50.01303 2.67120 26420 ft 425 kts 44°
2026-05-07 19:34 50.03400 2.70352 26162 ft 423 kts 44°
2026-05-07 19:35 50.05492 2.73569 25907 ft 422 kts 44°
2026-05-07 19:35 50.07577 2.76760 25658 ft 420 kts 43°
2026-05-07 19:35 50.09661 2.79941 25412 ft 419 kts 43°
2026-05-07 19:35 50.11741 2.83120 25168 ft 417 kts 43°
2026-05-07 19:36 50.13806 2.86287 24924 ft 416 kts 43°
2026-05-07 19:36 50.15864 2.89447 24686 ft 414 kts 43°
2026-05-07 19:36 50.17912 2.92595 24446 ft 413 kts 43°
2026-05-07 19:36 50.19954 2.95735 24210 ft 411 kts 43°
2026-05-07 19:37 50.21986 2.98869 23977 ft 410 kts 44°
2026-05-07 19:37 50.24010 3.01998 23740 ft 408 kts 44°
2026-05-07 19:37 50.26025 3.05117 23490 ft 407 kts 44°
2026-05-07 19:37 50.28035 3.08223 23221 ft 406 kts 44°
2026-05-07 19:38 50.30036 3.11316 22932 ft 404 kts 44°
2026-05-07 19:38 50.32029 3.14402 22665 ft 402 kts 44°
2026-05-07 19:38 50.34008 3.17481 22390 ft 400 kts 44°
2026-05-07 19:38 50.35973 3.20548 22141 ft 398 kts 44°
2026-05-07 19:39 50.37929 3.23604 22058 ft 397 kts 44°
2026-05-07 19:39 50.39887 3.26661 22078 ft 397 kts 44°
2026-05-07 19:39 50.41846 3.29716 22084 ft 397 kts 44°
2026-05-07 19:39 50.43804 3.32771 22075 ft 397 kts 44°
2026-05-07 19:40 50.45761 3.35828 22076 ft 397 kts 44°
2026-05-07 19:40 50.47721 3.38894 22076 ft 397 kts 44°
2026-05-07 19:40 50.49683 3.41937 21938 ft 395 kts 43°
2026-05-07 19:40 50.51640 3.44952 21552 ft 394 kts 42°
2026-05-07 19:41 50.53607 3.47940 21158 ft 392 kts 43°
2026-05-07 19:41 50.55549 3.50931 20769 ft 389 kts 43°
2026-05-07 19:41 50.57474 3.53898 20391 ft 387 kts 43°
2026-05-07 19:41 50.59394 3.56858 20019 ft 385 kts 43°
2026-05-07 19:42 50.61301 3.59795 19647 ft 382 kts 43°
2026-05-07 19:42 50.63194 3.62710 19280 ft 380 kts 43°
2026-05-07 19:42 50.65079 3.65613 18914 ft 378 kts 43°
2026-05-07 19:42 50.66956 3.68502 18558 ft 376 kts 43°
2026-05-07 19:43 50.68823 3.71374 18178 ft 373 kts 43°
2026-05-07 19:43 50.70677 3.74225 17770 ft 371 kts 43°
2026-05-07 19:43 50.72497 3.77020 17376 ft 369 kts 43°
2026-05-07 19:43 50.74327 3.79829 16978 ft 366 kts 43°
2026-05-07 19:44 50.76151 3.82625 16584 ft 364 kts 43°
2026-05-07 19:44 50.77990 3.85440 16191 ft 362 kts 44°
2026-05-07 19:44 50.79776 3.88170 15815 ft 360 kts 43°
2026-05-07 19:44 50.81569 3.90907 15435 ft 358 kts 43°
2026-05-07 19:45 50.83356 3.93633 15062 ft 356 kts 44°
2026-05-07 19:45 50.85133 3.96338 14696 ft 354 kts 44°
2026-05-07 19:45 50.86904 3.99030 14329 ft 352 kts 44°
2026-05-07 19:45 50.88667 4.01706 13972 ft 350 kts 44°
2026-05-07 19:46 50.90425 4.04371 13575 ft 348 kts 43°
2026-05-07 19:46 50.92153 4.06991 13170 ft 336 kts 44°
2026-05-07 19:46 50.93801 4.09491 12780 ft 320 kts 43°
2026-05-07 19:46 50.95375 4.11883 12384 ft 307 kts 44°
2026-05-07 19:47 50.96881 4.14189 11989 ft 294 kts 46°
2026-05-07 19:47 50.97962 4.16836 11616 ft 283 kts 68°
2026-05-07 19:47 50.98638 4.19756 11238 ft 282 kts 71°
2026-05-07 19:47 50.99257 4.22685 10871 ft 283 kts 72°
2026-05-07 19:48 50.99864 4.25695 10500 ft 283 kts 72°
2026-05-07 19:48 51.00453 4.28634 10137 ft 283 kts 72°
2026-05-07 19:48 51.01047 4.31618 9751 ft 283 kts 72°
2026-05-07 19:48 51.01636 4.34583 9348 ft 282 kts 72°
2026-05-07 19:49 51.02226 4.37547 8949 ft 281 kts 72°
2026-05-07 19:49 51.02813 4.40499 8556 ft 279 kts 72°
2026-05-07 19:49 51.03397 4.43428 8170 ft 277 kts 72°
2026-05-07 19:49 51.03977 4.46336 7782 ft 276 kts 73°
2026-05-07 19:50 51.04554 4.49225 7401 ft 273 kts 72°
2026-05-07 19:50 51.05130 4.52098 7027 ft 271 kts 72°
2026-05-07 19:50 51.05697 4.54930 6643 ft 263 kts 73°
2026-05-07 19:50 51.06239 4.57635 6259 ft 253 kts 73°
2026-05-07 19:51 51.06770 4.60283 5869 ft 249 kts 72°
2026-05-07 19:51 51.07293 4.62889 5483 ft 248 kts 72°
2026-05-07 19:51 51.07814 4.65495 5100 ft 246 kts 73°
2026-05-07 19:51 51.08332 4.68083 4715 ft 245 kts 73°
2026-05-07 19:52 51.08855 4.70651 4343 ft 242 kts 71°
2026-05-07 19:52 51.09392 4.73182 3965 ft 241 kts 72°
2026-05-07 19:52 51.09900 4.75716 3576 ft 240 kts 73°
2026-05-07 19:52 51.10400 4.78234 3195 ft 239 kts 73°
2026-05-07 19:53 51.10722 4.80801 2807 ft 237 kts 93°
2026-05-07 19:53 51.10220 4.83253 2429 ft 236 kts 125°
2026-05-07 19:53 51.08972 4.84871 2166 ft 234 kts 155°
2026-05-07 19:53 51.07413 4.85598 2025 ft 235 kts 177°
2026-05-07 19:54 51.05834 4.85041 2016 ft 237 kts 206°
2026-05-07 19:54 51.04407 4.83716 2010 ft 235 kts 212°
2026-05-07 19:54 51.03086 4.82357 2009 ft 218 kts 212°
2026-05-07 19:54 51.01866 4.81084 2006 ft 203 kts 213°
2026-05-07 19:55 51.00719 4.79879 2040 ft 192 kts 213°
2026-05-07 19:55 50.99635 4.78670 2030 ft 190 kts 222°
2026-05-07 19:55 50.98897 4.76987 2019 ft 189 kts 245°
2026-05-07 19:55 50.98357 4.75082 2013 ft 188 kts 245°
2026-05-07 19:56 50.97819 4.73187 2014 ft 189 kts 245°
2026-05-07 19:56 50.97278 4.71286 2007 ft 189 kts 245°
2026-05-07 19:56 50.96736 4.69389 2008 ft 189 kts 245°
2026-05-07 19:56 50.96192 4.67487 2007 ft 189 kts 245°
2026-05-07 19:57 50.95649 4.65591 2007 ft 189 kts 245°
2026-05-07 19:57 50.95126 4.63764 1942 ft 178 kts 245°
2026-05-07 19:57 50.94625 4.62017 1772 ft 171 kts 245°
2026-05-07 19:57 50.94299 4.60877 1639 ft 168 kts 245°
2026-05-07 19:58 50.93799 4.59136 1443 ft 180 kts 245°
2026-05-07 19:58 50.93295 4.57384 1176 ft 166 kts 245°
2026-05-07 19:58 50.92840 4.55801 950 ft 150 kts 245°
2026-05-07 19:58 50.92420 4.54341 748 ft 143 kts 245°
2026-05-07 19:59 50.92012 4.52924 566 ft 140 kts 245°
2026-05-07 19:59 50.91610 4.51530 376 ft 138 kts 245°
2026-05-07 19:59 50.91219 4.50149 236 ft 137 kts 245°
2026-05-07 19:59 50.90845 4.48860 189 ft 113 kts 245°
2026-05-07 20:00 50.90591 4.47986 190 ft 63 kts 245°
2026-05-07 20:00 50.90444 4.47653 192 ft 13 kts 215°
2026-05-07 20:00 50.90364 4.47574 188 ft 13 kts 208°
2026-05-07 20:00 50.90314 4.47609 194 ft 0 kts 104°
2026-05-07 20:01 50.90312 4.47645 195 ft 4 kts 79°
2026-05-07 20:02 50.90326 4.47691 195 ft 5 kts 65°
2026-05-07 20:02 50.90339 4.47733 196 ft 4 kts 64°
2026-05-07 20:02 50.90350 4.47769 191 ft 3 kts 64°
2026-05-07 20:02 50.90368 4.47831 191 ft 7 kts 65°
2026-05-07 20:03 50.90396 4.47926 197 ft 14 kts 65°
2026-05-07 20:03 50.90438 4.48074 194 ft 16 kts 65°
2026-05-07 20:03 50.90487 4.48243 190 ft 18 kts 65°
2026-05-07 20:03 50.90544 4.48435 191 ft 20 kts 64°
2026-05-07 20:04 50.90608 4.48652 189 ft 23 kts 71°
2026-05-07 20:04 50.90665 4.48860 188 ft 15 kts 65°
2026-05-07 20:04 50.90710 4.49016 194 ft 10 kts 65°
2026-05-07 20:04 50.90702 4.49096 188 ft 8 kts 134°
2026-05-07 20:05 50.90694 4.49103 195 ft 0 kts 154°
2026-05-07 20:05 50.90677 4.49155 190 ft 8 kts 91°
2026-05-07 20:05 50.90694 4.49233 188 ft 7 kts 65°
2026-05-07 20:06 50.90713 4.49298 195 ft 6 kts 65°
2026-05-07 20:06 50.90729 4.49354 185 ft 5 kts 65°
2026-05-07 20:06 50.90744 4.49406 188 ft 6 kts 65°
2026-05-07 20:06 50.90760 4.49464 194 ft 5 kts 65°
2026-05-07 20:07 50.90777 4.49525 189 ft 8 kts 69°
2026-05-07 20:07 50.90746 4.49584 189 ft 9 kts 164°
2026-05-07 20:07 50.90683 4.49568 185 ft 9 kts 193°
2026-05-07 20:07 50.90628 4.49547 188 ft 8 kts 194°
2026-05-07 20:08 50.90580 4.49527 196 ft 7 kts 194°
2026-05-07 20:08 50.90538 4.49509 185 ft 6 kts 194°
2026-05-07 20:08 50.90500 4.49494 191 ft 5 kts 195°
2026-05-07 20:08 50.90467 4.49479 184 ft 5 kts 196°
2026-05-07 20:09 50.90440 4.49445 192 ft 6 kts 242°
2026-05-07 20:09 50.90414 4.49357 189 ft 9 kts 245°
2026-05-07 20:09 50.90390 4.49269 192 ft 8 kts 246°
2026-05-07 20:10 50.90347 4.49120 192 ft 7 kts 245°
2026-05-07 20:10 50.90329 4.49059 192 ft 6 kts 245°
2026-05-07 20:10 50.90313 4.49005 189 ft 5 kts 245°
2026-05-07 20:10 50.90299 4.48958 189 ft 4 kts 245°
2026-05-07 20:11 50.90285 4.48909 192 ft 5 kts 245°
2026-05-07 20:11 50.90268 4.48850 187 ft 10 kts 245°
2026-05-07 20:11 50.90248 4.48779 195 ft 1 kts 245°
2026-05-07 20:11 50.90245 4.48763 195 ft 1 kts 257°
2026-05-07 20:12 50.90255 4.48733 195 ft 4 kts 310°
2026-05-07 20:12 50.90283 4.48709 188 ft 4 kts 336°
2026-05-07 20:12 50.90305 4.48693 191 ft 0 kts 336°
2026-05-07 20:13 50.90314 4.48687 189 ft 2 kts 336°
2026-05-07 20:13 50.90315 4.48687 190 ft 0 kts 336°